Location: Aulnoy
(48.8410°N, 3.0967°E)
Time: 14:09:31
(UTC+00:00)

Cosmos 2278 Rocket - Pass Details

Date: 09 February 2023
Orbit: 841 x 845 km, 71.0° (Epoch: 21 March)

Event Time Altitude Azimuth Distance (km) Brightness Sun altitude
Rises 20:12:02 0° 322° (NW) 3,415 6.1 -32.1°
Reaches altitude 10° 20:14:54 10° 309° (NW) 2,474 5.3 -32.6°
Maximum altitude 20:19:19 24° 258° (WSW) 1,683 4.2 -33.3°
Enters shadow 20:22:50 14° 213° (SSW) 2,208 4.5 -33.8°
